Regional Weather Roundup
Issued by NWS

Home | Current Version | Previous Version | Graphics & Text | Print | Product List | Glossary On
Versions: 1 2 3 4 5 6 7 8 9 10 11 12 13 14 15 16 17 18 19 20 21 22 23 24 25 26 27 28 29 30 31 32 33 34 35 36 37 38 39 40 41 42 43 44 45 46 47 48 49 50
000
ASUS45 KCYS 262110
RWRWY

WYOMING REGIONAL WEATHER ROUNDUP
NATIONAL WEATHER SERVICE CHEYENNE WY
300 PM MDT TUE AUG 26 2014

NOTE:  "FAIR" INDICATES FEW OR NO CLOUDS BELOW 12,000 FEET
WITH NO SIGNIFICANT WEATHER AND/OR OBSTRUCTIONS TO VISIBILITY.

WYZ001-262200-
YELLOWSTONE NATIONAL PARK

CITY           SKY/WX    TMP DP  RH WIND       PRES   REMARKS
LK YELLOWSTONE   N/A     57  42  57 VRB3      30.36F
W YELLOWSTONE  NOT AVBL

$$
WYZ002>013-054>058-071-098>099-262200-
NORTHERN WYOMING

CITY           SKY/WX    TMP DP  RH WIND       PRES   REMARKS
JACKSON        MOSUNNY   68  45  42 VRB7      30.25F
CODY           PTSUNNY   72  50  46 E5        30.18S
GREYBULL       SUNNY     77  44  30 VRB3      30.12F
WORLAND        SUNNY     75  50  41 NE6       30.14F
SHERIDAN       MOSUNNY   77  48  35 NW6       30.14F
BUFFALO        PTSUNNY   72  46  39 VRB3      30.21R
GILLETTE       MOSUNNY   76  49  38 N8        30.15S
HULETT         FAIR      73  52  46 MISG      30.16
NEWCASTLE      FAIR      77  45  31 MISG      30.13

$$
WYZ014>020-022>026-101>103-262200-
CENTRAL WYOMING

CITY           SKY/WX    TMP DP  RH WIND       PRES   REMARKS
BIG PINEY      LGT RAIN  64  36  35 MISG      30.29F
PINEDALE       PTCLDY    64  39  39 SW3       30.29F
DUBOIS         CLOUDY    66  36  32 N10       30.25F
LANDER         MOSUNNY   72  47  40 NE5       30.17F
RIVERTON       MOSUNNY   73  45  36 E9        30.19F
CASPER         PTSUNNY   77  45  32 N9        30.15F
DOUGLAS        LGT RAIN  77  51  40 NW8       30.15F

$$
WYZ021-027>030-104>119-262200-
SOUTHERN WYOMING

CITY           SKY/WX    TMP DP  RH WIND       PRES   REMARKS
EVANSTON       PTSUNNY   59  41  51 S14G26    30.29R THUNDER
KEMMERER       PTCLDY    68  41  37 E6        30.30S
FORT BRIDGER   FAIR      67  45  45 CALM      30.31S
ROCK SPRINGS   PTSUNNY   72  37  28 W8        30.26F
DIXON          FAIR      70  48  45 SW10      30.29F
RAWLINS        PTSUNNY   70  45  40 W14       30.27F
SARATOGA       FAIR      70  46  43 MISG      30.29F
LARAMIE        PTSUNNY   74  40  29 VRB7      30.27F
CHEYENNE       PTSUNNY   75  50  41 S9        30.21F
TORRINGTON     PTSUNNY   83  56  39 S12       30.09F
PINE BLUFFS    FAIR      81  50  34 SW6       30.17F

$$



USA.gov is the U.S. government's official web portal to all federal, state and local government web resources and services.